Location: Lesignano de� Bagni
(44.6500°N, 10.3000°E)
Time: 19:41:29
(UTC+00:00)

Helios 1A Rocket - Pass Details

Date: 03 March 2021
Orbit: 563 x 585 km, 98.3° (Epoch: 19 April)

Event Time Altitude Azimuth Distance (km) Brightness Sun altitude
Rises 17:36:59 0° 140° (SE) 2,769 6.0 -5.7°
Reaches altitude 10° 17:39:18 10° 129° (SE) 1,872 5.1 -6.1°
Maximum altitude 17:42:51 30° 68° (ENE) 1,032 3.7 -6.8°
Drops below altitude 10° 17:46:24 10° 7° (N) 1,875 5.5 -7.4°
Sets 17:48:43 0° 357° (N) 2,774 6.4 -7.8°
